Regional Weather Roundup
Issued by NWS

Home | Current Version | Previous Version | Graphics & Text | Print | Product List | Glossary On
Versions: 1 2 3 4 5 6 7 8 9 10 11 12 13 14 15 16 17 18 19 20 21 22 23 24 25 26 27 28 29 30 31 32 33 34 35 36 37 38 39 40 41 42 43 44 45 46 47 48 49 50
000
ASUS43 KFSD 281302
RWRSD

WEATHER ROUNDUP FOR SOUTH DAKOTA
NATIONAL WEATHER SERVICE SIOUX FALLS SD
800 AM CDT FRI AUG 28 2015

NOTE: "FAIR" INDICATES FEW OR NO CLOUDS BELOW 12,000 FEET WITH NO
SIGNIFICANT WEATHER AND/OR OBSTRUCTIONS TO VISIBILITY.


SDZ001>005-009-010-012>017-281400-
NORTHWEST AND NORTH CENTRAL SOUTH DAKOTA

CITY           SKY/WX    TMP DP  RH WIND       PRES   REMARKS
BUFFALO          N/A     57  54  89 SW3       29.93S
FAITH            N/A     59  57  93 S9        29.98R
MOBRIDGE       FOG       67  67 100 S6        29.93R VSB 1/2
$$

SDZ012>016-024>037-041>051-057-063-072>074-281400-
SOUTHWEST AND SOUTH CENTRAL SOUTH DAKOTA

CITY           SKY/WX    TMP DP  RH WIND       PRES   REMARKS
RAPID CTY ARPT PTCLDY    58  53  84 NW8       30.02R
PIERRE         CLOUDY    67  66  97 NE3       29.94R
CUSTER         PTCLDY    61  45  55 NW5       30.17R
ELLSWORTH AFB  PTCLDY    57  54  88 NW7       30.01R
PHILIP         FOG       62  61  96 W5        29.98R VSB<1/4
PINE RIDGE     CLEAR     48  46  93 CALM      30.03R
WINNER         CLOUDY    66  65  96 NE7       29.95R FOG
$$

SDZ004>011-016>023-039-040-281400-
NORTHEAST SOUTH DAKOTA

CITY           SKY/WX    TMP DP  RH WIND       PRES   REMARKS
ABERDEEN       FOG       61  59  93 CALM      29.94R VSB 1/4
WATERTOWN      CLOUDY    66  63  90 NE5       29.97R
BROOKINGS      CLOUDY    64  61  88 NE7       29.97R
$$

SDZ017-020-022-023-036>040-048>070-281400-
SOUTHEAST SOUTH DAKOTA

CITY           SKY/WX    TMP DP  RH WIND       PRES   REMARKS
SIOUX FALLS    LGT RAIN  64  63  96 E10       29.92S FOG
HURON          PTSUNNY   65  63  93 CALM      29.93R
CHAMBERLAIN    CLOUDY    65  65  99 NE5       29.93S
MITCHELL       CLOUDY    66  65  96 NE8       29.92S
YANKTON        CLOUDY    64  63  94 NE10      29.85S
$$

ABBREVIATIONS USED IN REMARKS
   TC - TEMPERATURE IN CELSIUS
  WCI - WIND CHILL INDEX
   HX - HEAT INDEX
  VSB - VISIBILITY




USA.gov is the U.S. government's official web portal to all federal, state and local government web resources and services.